When you browse on this site, cookies collect data to enhance your experience and personalize the content and advertising you see.
Visit our Privacy Policy to learn more. By continuing to use the site, you agree to this use of cookies and data.
  • In Hungary
  • List of Countries
  • For 7 days
  • Water Temperature
  • Weather Map
  • News
  • Weather Widgets
  • user-avatar
    Login

    Hourly Weather Mikli

    Today, 18 August, Sunday

    Time Temperature Precipitation Wind Pressure Humidity
    00:00 +13°C° 0 mm 3 mps 762 mmHg 78%
    01:00 +12°C° 0 mm 3 mps 762 mmHg 78%
    02:00 +13°C° 0 mm 2 mps 762 mmHg 78%
    03:00 +13°C° 0 mm 2 mps 762 mmHg 79%
    04:00 +13°C° 0 mm 2 mps 762 mmHg 79%
    05:00 +13°C° 0 mm 2 mps 762 mmHg 80%
    06:00 +13°C° 0 mm 3 mps 762 mmHg 74%
    07:00 +16°C° 0 mm 3 mps 761 mmHg 68%
    08:00 +18°C° 0 mm 4 mps 761 mmHg 62%
    09:00 +19°C° 0 mm 4 mps 761 mmHg 58%
    10:00 +20°C° 0 mm 4 mps 761 mmHg 54%
    11:00 +21°C° 0 mm 4 mps 761 mmHg 49%
    12:00 +21°C° 0 mm 3 mps 760 mmHg 47%
    13:00 +21°C° 0 mm 3 mps 760 mmHg 46%
    14:00 +22°C° 0 mm 3 mps 760 mmHg 44%
    15:00 +21°C° 0 mm 3 mps 759 mmHg 45%
    16:00 +21°C° 0 mm 2 mps 759 mmHg 47%
    17:00 +21°C° 0 mm 2 mps 759 mmHg 48%
    18:00 +19°C° 0 mm 2 mps 759 mmHg 55%
    19:00 +18°C° 0 mm 1 mps 759 mmHg 63%
    20:00 +15°C° 0 mm 1 mps 759 mmHg 70%
    21:00 +15°C° 0 mm 2 mps 759 mmHg 72%
    22:00 +15°C° 0 mm 2 mps 759 mmHg 74%
    23:00 +13°C° 0 mm 3 mps 758 mmHg 76%

    Tomorrow, 19 August, Monday

    Time Temperature Precipitation Wind Pressure Humidity
    00:00 +13°C° 0 mm 3 mps 758 mmHg 81%
    01:00 +13°C° 0 mm 3 mps 758 mmHg 86%
    02:00 +13°C° 0 mm 4 mps 758 mmHg 91%
    03:00 +13°C° 0 mm 4 mps 758 mmHg 93%
    04:00 +13°C° 0 mm 4 mps 758 mmHg 94%
    05:00 +13°C° 0 mm 4 mps 757 mmHg 96%
    06:00 +14°C° 0 mm 4 mps 757 mmHg 90%
    07:00 +17°C° 0 mm 4 mps 757 mmHg 85%
    08:00 +18°C° 0 mm 4 mps 757 mmHg 79%
    09:00 +19°C° 0 mm 5 mps 757 mmHg 75%
    10:00 +20°C° 0 mm 5 mps 756 mmHg 70%
    11:00 +20°C° 0 mm 5 mps 756 mmHg 66%
    12:00 +20°C° 0 mm 5 mps 756 mmHg 69%
    13:00 +19°C° 0 mm 5 mps 756 mmHg 72%
    14:00 +17°C° 0 mm 5 mps 756 mmHg 74%
    15:00 +19°C° 0 mm 5 mps 756 mmHg 75%
    16:00 +19°C° 0 mm 4 mps 756 mmHg 76%
    17:00 +19°C° 0 mm 4 mps 757 mmHg 77%
    18:00 +19°C° 0.1 mm 4 mps 757 mmHg 82%
    19:00 +18°C° 0.1 mm 3 mps 757 mmHg 87%
    20:00 +17°C° 0.1 mm 3 mps 757 mmHg 92%
    21:00 +17°C° 0 mm 3 mps 757 mmHg 94%
    22:00 +16°C° 0 mm 3 mps 757 mmHg 96%
    23:00 +16°C° 0 mm 3 mps 757 mmHg 98%

    Day after tomorrow, 20 August, Tuesday

    Time Temperature Precipitation Wind Pressure Humidity
    00:00 +16°C° 0 mm 3 mps 758 mmHg 98%
    01:00 +14°C° 0 mm 3 mps 758 mmHg 98%
    02:00 +14°C° 0 mm 3 mps 758 mmHg 97%
    03:00 +14°C° 0 mm 3 mps 758 mmHg 97%
    04:00 +13°C° 0 mm 3 mps 759 mmHg 97%
    05:00 +14°C° 0 mm 2 mps 759 mmHg 96%
    06:00 +14°C° 0 mm 3 mps 759 mmHg 88%
    07:00 +17°C° 0 mm 3 mps 760 mmHg 81%
    08:00 +18°C° 0 mm 3 mps 760 mmHg 73%
    09:00 +19°C° 0 mm 3 mps 760 mmHg 66%
    10:00 +21°C° 0 mm 3 mps 760 mmHg 59%
    11:00 +22°C° 0 mm 3 mps 761 mmHg 52%
    12:00 +23°C° 0 mm 4 mps 761 mmHg 50%
    13:00 +23°C° 0 mm 4 mps 761 mmHg 49%
    14:00 +25°C° 0 mm 4 mps 761 mmHg 48%
    15:00 +23°C° 0 mm 5 mps 761 mmHg 51%
    16:00 +23°C° 0 mm 5 mps 761 mmHg 54%
    17:00 +22°C° 0 mm 5 mps 761 mmHg 57%
    18:00 +21°C° 0 mm 5 mps 762 mmHg 61%
    19:00 +19°C° 0 mm 5 mps 762 mmHg 66%
    20:00 +16°C° 0 mm 5 mps 762 mmHg 71%
    21:00 +16°C° 0 mm 5 mps 762 mmHg 73%
    22:00 +15°C° 0 mm 5 mps 763 mmHg 76%
    23:00 +14°C° 0 mm 4 mps 763 mmHg 79%

    21 August, Wednesday

    Time Temperature Precipitation Wind Pressure Humidity
    00:00 +14°C° 0 mm 4 mps 764 mmHg 83%
    01:00 +13°C° 0 mm 4 mps 764 mmHg 87%
    02:00 +13°C° 0 mm 4 mps 764 mmHg 91%
    03:00 +12°C° 0 mm 3 mps 764 mmHg 93%
    04:00 +12°C° 0 mm 3 mps 765 mmHg 95%
    05:00 +11°C° 0 mm 3 mps 765 mmHg 97%
    06:00 +13°C° 0 mm 3 mps 765 mmHg 88%
    07:00 +16°C° 0 mm 3 mps 765 mmHg 79%
    08:00 +18°C° 0 mm 3 mps 765 mmHg 70%
    09:00 +19°C° 0 mm 3 mps 766 mmHg 64%
    10:00 +20°C° 0 mm 3 mps 766 mmHg 59%
    11:00 +21°C° 0 mm 4 mps 766 mmHg 53%
    12:00 +22°C° 0 mm 4 mps 766 mmHg 51%
    13:00 +22°C° 0 mm 4 mps 765 mmHg 50%
    14:00 +22°C° 0 mm 4 mps 765 mmHg 49%
    15:00 +22°C° 0 mm 4 mps 765 mmHg 51%
    16:00 +21°C° 0 mm 4 mps 765 mmHg 53%
    17:00 +21°C° 0 mm 4 mps 764 mmHg 55%
    18:00 +19°C° 0 mm 3 mps 764 mmHg 62%
    19:00 +18°C° 0 mm 3 mps 764 mmHg 68%
    20:00 +16°C° 0 mm 3 mps 764 mmHg 75%
    21:00 +16°C° 0.1 mm 3 mps 764 mmHg 77%
    22:00 +16°C° 0.1 mm 3 mps 764 mmHg 80%
    23:00 +14°C° 0.1 mm 3 mps 764 mmHg 82%

    22 August, Thursday

    Time Temperature Precipitation Wind Pressure Humidity
    00:00 +14°C° 0.1 mm 3 mps 764 mmHg 84%
    01:00 +14°C° 0.1 mm 3 mps 764 mmHg 87%
    02:00 +14°C° 0.1 mm 3 mps 764 mmHg 89%
    03:00 +15°C° 0.3 mm 2 mps 763 mmHg 90%
    04:00 +15°C° 0.3 mm 2 mps 763 mmHg 91%
    05:00 +15°C° 0.3 mm 2 mps 763 mmHg 93%
    06:00 +15°C° 0.1 mm 2 mps 763 mmHg 90%
    07:00 +16°C° 0.1 mm 2 mps 763 mmHg 87%
    08:00 +17°C° 0.1 mm 3 mps 763 mmHg 84%
    09:00 +18°C° 0.2 mm 3 mps 763 mmHg 76%
    10:00 +18°C° 0.2 mm 3 mps 763 mmHg 68%
    11:00 +19°C° 0.2 mm 3 mps 763 mmHg 60%
    12:00 +20°C° 0 mm 3 mps 763 mmHg 55%
    13:00 +21°C° 0 mm 3 mps 763 mmHg 50%
    14:00 +21°C° 0 mm 4 mps 763 mmHg 45%
    15:00 +21°C° 0 mm 3 mps 763 mmHg 47%
    16:00 +21°C° 0 mm 3 mps 763 mmHg 49%
    17:00 +21°C° 0 mm 3 mps 763 mmHg 51%
    18:00 +19°C° 0 mm 3 mps 763 mmHg 57%
    19:00 +18°C° 0 mm 3 mps 764 mmHg 64%
    20:00 +16°C° 0 mm 3 mps 764 mmHg 70%
    21:00 +14°C° 0 mm 3 mps 764 mmHg 70%
    22:00 +13°C° 0 mm 3 mps 764 mmHg 71%
    23:00 +13°C° 0 mm 3 mps 765 mmHg 72%

    23 August, Friday

    Time Temperature Precipitation Wind Pressure Humidity
    00:00 +12°C° 0 mm 3 mps 765 mmHg 73%
    01:00 +11°C° 0 mm 3 mps 765 mmHg 74%
    02:00 +12°C° 0 mm 2 mps 765 mmHg 75%
    03:00 +10°C° 0 mm 2 mps 766 mmHg 77%
    04:00 +10°C° 0 mm 2 mps 766 mmHg 78%
    05:00 +10°C° 0 mm 2 mps 766 mmHg 80%
    06:00 +13°C° 0 mm 1 mps 766 mmHg 73%
    07:00 +14°C° 0 mm 1 mps 766 mmHg 66%
    08:00 +16°C° 0 mm 1 mps 766 mmHg 59%
    09:00 +18°C° 0 mm 1 mps 766 mmHg 54%
    10:00 +19°C° 0 mm 1 mps 767 mmHg 49%
    11:00 +20°C° 0 mm 1 mps 767 mmHg 44%
    12:00 +21°C° 0 mm 1 mps 767 mmHg 42%
    13:00 +21°C° 0 mm 1 mps 767 mmHg 40%
    14:00 +20°C° 0 mm 2 mps 767 mmHg 38%
    15:00 +21°C° 0 mm 1 mps 767 mmHg 40%
    16:00 +21°C° 0 mm 1 mps 767 mmHg 42%
    17:00 +21°C° 0 mm 1 mps 766 mmHg 44%
    18:00 +19°C° 0 mm 1 mps 767 mmHg 51%
    19:00 +16°C° 0 mm 1 mps 767 mmHg 57%
    20:00 +14°C° 0 mm 1 mps 767 mmHg 64%
    21:00 +13°C° 0 mm 1 mps 767 mmHg 66%
    22:00 +13°C° 0 mm 1 mps 767 mmHg 69%
    23:00 +12°C° 0 mm 2 mps 767 mmHg 71%
    Show more